星链-36900(STARLINK-36900)

导读

STARLINK-36900(NORAD编号67973)是美国太空探索技术公司(SpaceX)部署的星链(Starlink)星座卫星,属于Starlink V1.0卫星平台。该卫星运行在近地轨道,轨道倾角约70度,近地点高度约570公里,远地点高度约574公里,绕行周期约96分钟。 作为星链全球卫星互联网项目的组成部分,它配备相控阵天线与星间激光链路技术,可为全球尤其是偏远区域提供高速低延迟互联网接入,同时也支持军事、航空等领域通信服务,助力缩小全球数字鸿沟。卫星采用氩气离子推进系统,任务结束后可自主脱轨减少空间碎片。

基本信息
目录编号:
67973
目录名称:
STARLINK-36900
国际标识:
2026-038N
轨道中心:
EARTH
卫星名称:
星链-36900
卫星全名:
星链-36900(STARLINK-36900)
卫星状态:
在轨 (已飞行200 天)
发射日期:
2026-02-25 UTC
国别 :
美国 (US)
星等 :
--
该卫星已列入 空间交会检测服务 Space Conjunction Data Service (SCDS) ,当前飞行风险评估等级: 无高风险
轨道信息
数据来源 国际轨道数据
星历时间: 2026-09-13T07:46:27+0800
9小时前
查看轨道信息
半长轴: 6843.667km
偏心率: 0.0001757
轨道倾角: 97.284°
近地点辐角 94.535°
升交点赤经 264.454°
平近点角 265.609°
近地点: 464.327km
远地点: 466.733km
周期: 93.906分钟
每日圈数: 15.334497
详细信息
固有亮度:
5
最大亮度:
2.5
卫星平台:
Starlink V1.0
覆盖范围:
全球
运营商:
太空探索技术公司
运营商所在国:
美国
制造商(研发单位):
太空探索技术公司
制造商所在国:
美国
使用方式:
暂无
卫星简介
Starlink 计划是 SpaceX 推出的全球卫星互联网项目,通过发射低轨道卫星,为全球尤其是偏远地区提供高速、低延迟的互联网服务。自 2019 年起,Starlink 已部署数千颗卫星,旨在缩小全球数字鸿沟,推动互联网普及。该项目还为军事、航空等行业提供通信支持,带来广泛经济效益。
2D轨道图
3D轨道图
轨道高度分析图
轨道倾角分析图
轨道综合分析图
查看轨道综合分析图
交会数据列表
事件ID 空间交会对象 最接近时刻(TCA) 交会距离 交会风险概率(CRP) 交会风险指数(CRI) 操作
CDM_260913-214904-283706-797324
2026-09-13T
21:49:29+0000
0.584 km
远距离
1.430097E-4 高风险 0.78
CDM_260913-232304-283706-797324
2026-09-13T
23:23:26+0000
1.030 km
极远距离
2.486327E-5 中风险 0.63
CDM_260914-080305-379906-797322
2026-09-14T
08:03:56+0000
1.752 km
极远距离
3.997388E-6 低风险 0.47
CDM_260913-201504-283706-797323
2026-09-13T
20:15:32+0000
2.019 km
极远距离
2.827517E-6 低风险 0.44
CDM_260914-005704-283706-797324
2026-09-14T
00:57:23+0000
2.499 km
极远距离
1.778673E-6 低风险 0.4
CDM_260913-111805-230106-797321
2026-09-13T
11:18:52+0000
2.347 km
极远距离
1.459209E-6 低风险 0.38
CDM_260914-110804-283706-797322
2026-09-14T
11:08:06+0000
2.911 km
极远距离
1.405601E-6 低风险 0.38
CDM_260909-102606-226206-797322
2026-09-09T
10:26:55+0000
2.910 km
极远距离
1.387873E-6 低风险 0.38
CDM_260913-191205-235306-797324
2026-09-13T
19:12:20+0000
2.928 km
极远距离
1.363112E-6 低风险 0.38
与全量物体交会距离演化趋势
与全量物体交会风险概率演化趋势